Flag Weather past 2 weeks in Neustrelitz, Mecklenburg-Western Pomerania, Germany

Now
39 °F

Passing clouds.


Feels Like: 37 °F
Forecast: 38 / 46 °F
Wind: 3 mph from Southeast

Location: Neuruppin

Current Time: Nov 23, 2014 at 3:40:29 AM

Latest Report: Nov 23, 2014 at 3:00 AM


Visibility: 6 mi

Pressure: 30.24 "Hg

Humidity: 91%

Dew point: 37 °F

Location of NeustrelitzLocation

Historic Weather in Neustrelitz — Graph

°F

Neustrelitz temperature yesterday

Maximum temperature yesterday: 44 °F (at 1:00 PM)
Minimum temperature yesterday: 39 °F (at 12:00 AM)
Average temperature yesterday: 41 °F

Past Weeks' High & Low Weather Summary

 TemperatureHumidityPressure
High54 °F (Nov 14, 12:00 PM)100% (Nov 11, 5:00 AM)30.38 "Hg (Nov 11, 5:00 AM)
Low32 °F (Nov 21, 7:00 AM)71% (Nov 22, 1:00 PM)29.59 "Hg (Nov 16, 2:00 PM)
Average45 °F93%29.97 "Hg
* Reported Nov 8 2:00 AM — Nov 23 2:00 AM, Neustrelitz, Weather by CustomWeather, © 2014

Note: Actual official high and low records may vary slightly from our data, if they occured in-between our weather recording intervals... More about our weather records

Advertising

Neustrelitz weather history for previous 24 hours

 ConditionsComfort  
Time TempWeatherWind HumidityBarometerVisibility
2:00 AM
Nov 23
40 °FPassing clouds.3 mph89%30.24 "Hg6 mi
1:00 AM40 °FOvercast.3 mph88%30.25 "Hg6 mi
12:00 AM40 °FOvercast.5 mph88%30.25 "Hg6 mi
11:00 PM
Nov 22
40 °FOvercast.3 mph89%30.26 "Hg6 mi
9:00 PM41 °FOvercast.3 mph89%30.26 "Hg6 mi
8:00 PM41 °FOvercast.3 mph91%30.28 "Hg6 mi
7:00 PM42 °FOvercast.5 mph79%30.25 "Hg6 mi
6:00 PM42 °FOvercast.5 mph79%30.25 "Hg6 mi
5:00 PM42 °FOvercast.3 mph82%30.25 "Hg6 mi
4:00 PM43 °FOvercast.3 mph80%30.26 "Hg6 mi
3:00 PM44 °FOvercast.6 mph75%30.25 "Hg6 mi
2:00 PM44 °FOvercast.6 mph75%30.26 "Hg6 mi
1:00 PM44 °FOvercast.7 mph71%30.27 "Hg6 mi
12:00 PM43 °FOvercast.5 mph75%30.28 "Hg6 mi
11:00 AM42 °FOvercast.5 mph79%30.29 "Hg6 mi
9:00 AM41 °FOvercast.3 mph83%30.29 "Hg6 mi
8:00 AM41 °FOvercast.3 mph86%30.29 "Hg6 mi
7:00 AM41 °FOvercast.3 mph85%30.28 "Hg6 mi
6:00 AM41 °FOvercast.3 mph86%30.28 "Hg6 mi
5:00 AM40 °FOvercast.3 mph88%30.28 "Hg6 mi
3:00 AM40 °FOvercast.2 mph94%30.29 "Hg6 mi
Weather by CustomWeather, © 2014

See weather overviewHow to use our weather pages